Date String (YYYY-MM-DD hh:mm:ss) UTC,Instrument flags,Ambient pressure (hPa),Sample flow (lpm),Bypass flow (lpm),Sample temperature (°C),Ambient temperature (°C),ASC tube jacket temperature (°C),LED temperature (°C),Box temperature (°C),Sample RH (%),Span deviation,Mass concentration (μg/m³),Mass concentration (μg/m³),Mass concentration (μg/m³)
DateTimeUTC,F1_M11,P_M11,Q1_M11,Q2_M11,T1_M11,T2_M11,T3_M11,T4_M11,T5_M11,U1_M11,ZSPAN_M11,X0_M11,X2_M11,X1_M11
2021-09-18 05:00:00,,0832.1,4.99,0.00,29.3,28.6,00.0,38.5,31.0,20.5,0002.3,0032.75,0012.64,0010.30
2021-09-18 05:01:00,,0832.1,4.99,0.00,29.3,28.6,00.0,38.5,31.0,20.5,0002.1,0034.38,0012.65,0010.31
2021-09-18 05:02:00,,0832.1,5.01,0.00,29.3,28.5,00.0,38.5,31.0,20.5,0002.0,0034.37,0012.55,0010.29
2021-09-18 05:03:00,,0832.1,5.00,0.00,29.3,28.6,00.0,38.5,31.0,20.5,0001.8,0035.26,0012.56,0010.29
2021-09-18 05:04:00,,0832.1,5.00,0.00,29.3,28.5,00.0,38.5,31.0,20.5,0002.0,0034.70,0012.58,0010.27
2021-09-18 05:05:00,,0832.1,5.00,0.00,29.3,28.5,00.0,38.5,31.0,20.5,0002.4,0032.93,0012.52,0010.26
2021-09-18 05:06:00,,0832.1,4.99,0.00,29.3,28.5,00.0,38.5,31.0,20.6,0002.4,0032.81,0012.48,0010.23
2021-09-18 05:07:00,,0832.2,5.01,0.00,29.3,28.5,00.0,38.5,31.0,20.6,0002.5,0031.92,0012.50,0010.20
2021-09-18 05:08:00,,0832.1,5.00,0.00,29.3,28.5,00.0,38.5,31.0,20.6,0002.6,0031.66,0012.39,0010.17
2021-09-18 05:09:00,,0832.2,5.02,0.00,29.3,28.5,00.0,38.5,31.0,20.6,0002.7,0032.15,0012.30,0010.13
2021-09-18 05:10:00,,0832.2,5.01,0.00,29.3,28.5,00.0,38.5,30.9,20.6,0002.8,0033.53,0012.27,0010.08
2021-09-18 05:11:00,,0832.1,4.98,0.00,29.2,28.5,00.0,38.5,30.9,20.6,0002.7,0031.89,0012.31,0010.07
2021-09-18 05:12:00,,0832.2,5.01,0.00,29.2,28.5,00.0,38.5,30.9,20.6,0002.8,0030.80,0012.25,0010.06
2021-09-18 05:13:00,,0832.2,5.00,0.00,29.2,28.5,00.0,38.5,30.9,20.6,0002.8,0029.78,0012.24,0010.04
2021-09-18 05:14:00,,0832.2,4.99,0.00,29.2,28.5,00.0,38.5,30.9,20.6,0002.8,0029.66,0012.29,0010.02
2021-09-18 05:15:00,,0832.2,5.01,0.00,29.2,28.5,00.0,38.5,30.9,20.6,0002.8,0029.39,0012.23,0010.00
2021-09-18 05:16:00,,0832.2,5.01,0.00,29.2,28.5,00.0,38.4,30.9,20.6,0002.7,0029.97,0012.19,0009.98
2021-09-18 05:17:00,,0832.1,4.99,0.00,29.2,28.5,00.0,38.4,30.9,20.6,0002.6,0028.94,0012.12,0009.93
2021-09-18 05:18:00,,0832.2,5.00,0.00,29.2,28.5,00.0,38.4,30.9,20.6,0002.1,0028.43,0012.00,0009.87
2021-09-18 05:19:00,,0832.1,5.00,0.00,29.2,28.4,00.0,38.4,30.9,20.6,0001.5,0028.44,0012.03,0009.82
2021-09-18 05:20:00,,0832.2,5.00,0.00,29.2,28.5,00.0,38.4,30.9,20.6,0001.4,0028.65,0012.09,0009.77
2021-09-18 05:21:00,,0832.2,4.99,0.00,29.2,28.5,00.0,38.4,30.9,20.6,0001.3,0027.38,0011.99,0009.70
2021-09-18 05:22:00,,0832.1,5.00,0.00,29.2,28.5,00.0,38.4,30.9,20.6,0001.5,0026.80,0011.90,0009.62
2021-09-18 05:23:00,,0832.1,4.99,0.00,29.2,28.4,00.0,38.4,30.9,20.6,0001.4,0027.80,0011.91,0009.59
2021-09-18 05:24:00,,0832.1,4.99,0.00,29.2,28.4,00.0,38.4,30.9,20.6,0000.9,0029.71,0011.91,0009.55
2021-09-18 05:25:00,,0832.2,5.00,0.00,29.2,28.4,00.0,38.4,30.9,20.6,0001.2,0029.87,0011.77,0009.50
2021-09-18 05:26:00,,0832.1,5.02,0.00,29.2,28.4,00.0,38.4,30.9,20.6,0001.3,0028.97,0011.73,0009.46
2021-09-18 05:27:00,,0832.1,5.00,0.00,29.2,28.4,00.0,38.4,30.9,20.6,0001.2,0028.03,0011.76,0009.45
2021-09-18 05:28:00,,0832.1,4.99,0.00,29.2,28.4,00.0,38.4,30.8,20.6,0001.2,0028.51,0011.82,0009.46
2021-09-18 05:29:00,,0832.1,5.00,0.00,29.2,28.4,00.0,38.4,30.9,20.6,0001.4,0028.63,0011.82,0009.46
2021-09-18 05:30:00,,0832.1,5.00,0.00,29.1,28.3,00.0,38.4,30.8,20.6,0001.6,0029.04,0011.84,0009.46
2021-09-18 05:31:00,,0832.2,5.00,0.00,29.1,28.3,00.0,38.4,30.8,20.6,0001.6,0028.10,0011.74,0009.46
2021-09-18 05:32:00,,0832.2,5.00,0.00,29.1,28.3,00.0,38.3,30.8,20.6,0001.9,0028.65,0011.80,0009.48
2021-09-18 05:33:00,,0832.2,4.99,0.00,29.1,28.3,00.0,38.3,30.8,20.6,0001.9,0029.29,0011.91,0009.51
2021-09-18 05:34:00,,0832.3,5.01,0.00,29.1,28.3,00.0,38.3,30.8,20.6,0002.1,0029.20,0011.89,0009.51
2021-09-18 05:35:00,,0832.2,4.99,0.00,29.1,28.3,00.0,38.3,30.8,20.7,0002.3,0028.65,0011.88,0009.52
2021-09-18 05:36:00,,0832.2,4.99,0.00,29.1,28.3,00.0,38.3,30.8,20.6,0002.0,0029.36,0011.95,0009.56
2021-09-18 05:37:00,,0832.2,5.00,0.00,29.1,28.3,00.0,38.3,30.8,20.6,0001.8,0030.24,0011.93,0009.59
2021-09-18 05:38:00,,0832.2,4.99,0.00,29.1,28.3,00.0,38.3,30.8,20.7,0002.2,0030.56,0011.96,0009.61
2021-09-18 05:39:00,,0832.2,5.01,0.00,29.1,28.3,00.0,38.3,30.8,20.7,0002.3,0030.60,0012.02,0009.61
2021-09-18 05:40:00,,0832.2,5.00,0.00,29.1,28.3,00.0,38.3,30.8,20.7,0002.3,0030.59,0012.06,0009.64
2021-09-18 05:41:00,,0832.2,5.02,0.00,29.1,28.3,00.0,38.3,30.8,20.7,0002.6,0030.11,0012.15,0009.68
2021-09-18 05:42:00,,0832.2,5.00,0.00,29.1,28.3,00.0,38.3,30.8,20.7,0002.8,0030.81,0012.22,0009.72
2021-09-18 05:43:00,,0832.2,5.00,0.00,29.1,28.3,00.0,38.3,30.8,20.7,0002.6,0030.85,0012.24,0009.75
2021-09-18 05:44:00,,0832.3,5.01,0.00,29.1,28.3,00.0,38.3,30.8,20.6,0002.4,0030.81,0012.19,0009.75
2021-09-18 05:45:00,,0832.2,5.00,0.00,29.1,28.3,00.0,38.3,30.8,20.6,0002.0,0030.24,0012.17,0009.74
2021-09-18 05:46:00,,0832.2,5.00,0.00,29.1,28.3,00.0,38.3,30.8,20.6,0001.8,0029.34,0012.11,0009.70
2021-09-18 05:47:00,,0832.2,4.99,0.00,29.1,28.3,00.0,38.3,30.8,20.6,0001.6,0027.53,0011.96,0009.64
2021-09-18 05:48:00,,0832.2,5.01,0.00,29.1,28.3,00.0,38.3,30.8,20.6,0001.8,0026.76,0011.95,0009.58
2021-09-18 05:49:00,,0832.2,4.99,0.00,29.0,28.3,00.0,38.3,30.7,20.6,0001.6,0026.27,0011.88,0009.53
2021-09-18 05:50:00,,0832.1,5.00,0.00,29.0,28.3,00.0,38.3,30.7,20.5,0001.3,0026.20,0011.79,0009.50
2021-09-18 05:51:00,,0832.2,5.00,0.00,29.0,28.3,00.0,38.3,30.7,20.5,0001.1,0026.10,0011.73,0009.46
2021-09-18 05:52:00,,0832.2,5.00,0.00,29.0,28.3,00.0,38.3,30.7,20.5,0000.9,0026.56,0011.65,0009.39
2021-09-18 05:53:00,,0832.1,5.01,0.00,29.0,28.3,00.0,38.2,30.7,20.5,0000.8,0026.59,0011.59,0009.31
2021-09-18 05:54:00,,0832.1,5.01,0.00,29.0,28.3,00.0,38.2,30.7,20.6,0000.7,0027.08,0011.53,0009.25
2021-09-18 05:55:00,,0832.2,4.99,0.00,29.0,28.3,00.0,38.2,30.7,20.6,0001.0,0026.05,0011.44,0009.20
2021-09-18 05:56:00,,0832.2,5.00,0.00,29.0,28.3,00.0,38.2,30.7,20.6,0001.4,0025.41,0011.43,0009.18
2021-09-18 05:57:00,,0832.2,5.00,0.00,29.0,28.3,00.0,38.2,30.7,20.6,0001.4,0024.10,0011.40,0009.17
2021-09-18 05:58:00,,0832.2,5.01,0.00,29.0,28.2,00.0,38.2,30.7,20.6,0001.3,0023.46,0011.42,0009.17
2021-09-18 05:59:00,,0832.2,4.99,0.00,29.0,28.2,00.0,38.2,30.7,20.6,0001.5,0023.67,0011.41,0009.17
